Find Sunsat-OSCAR-35

NORAD ID: 25636 Int'l Des: 1999-008 Owner: STBO Country: ZA operational
LEORETROGRADE

Live Position

Loading 3D Globe...

About Sunsat-OSCAR-35

Description loading...

Upcoming Passes

Passes for default location (London). Set your location on the main map for personalized predictions.

Altitude History

Loading altitude history...

Two-Line Element Set

1 25636U 99008C 26104.41042174 .00000111 00000-0 34761-4 0 9992
2 25636 96.4782 356.1647 0142069 170.3350 190.0634 14.46440698430010
Epoch: Apr 14, 2026 • Age: 12 hours

Current Status

Altitude 790.3 km
Velocity 7.44 km/s
Sub-Earth Point 51.49°N, 179.57°E
Launch Date Feb 23, 1999
Age 27.1 years
Type other

Technical Details

Classification Payload
Mass 60.00 kg
Dry Mass 60.00 kg
Total Mass 60.00 kg
Length 0.60 m
Diameter 0.50 m
Span 2.80 m
Shape Box + Ant
Manufacturer STBO
Bus Type Sunsat
Phase Status In Orbit
Owner/State STBO/ZA

Most Searched